Date Time,Air Temp,Sky Temp,Clarity,Light Level,Rain Sensor,Readings
2012-03-20 00:00:07,17.7,-16.9,34.5,0.0,2.4,112
2012-03-20 00:05:07,17.3,-16.9,34.1,0.0,2.3,112
2012-03-20 00:10:07,17.0,-17.0,34.0,0.0,2.3,111
2012-03-20 00:15:07,16.9,-17.2,34.1,0.0,2.3,112
2012-03-20 00:20:07,16.9,-17.0,33.9,0.0,2.3,111
2012-03-20 00:25:07,16.9,-17.1,33.9,0.0,2.3,111
2012-03-20 00:30:07,16.8,-17.1,34.0,0.0,2.3,112
2012-03-20 00:35:07,16.8,-17.1,33.9,0.0,2.3,111
2012-03-20 00:40:07,17.0,-17.2,34.3,0.0,2.3,111
2012-03-20 00:45:07,17.3,-17.4,34.7,0.0,2.3,112
2012-03-20 00:50:07,17.2,-17.5,34.8,0.0,2.3,111
2012-03-20 00:55:07,17.2,-17.5,34.7,0.0,2.3,112
2012-03-20 01:00:07,17.2,-17.8,35.0,0.0,2.3,111
2012-03-20 01:05:07,17.1,-17.8,34.9,0.0,2.3,112
2012-03-20 01:10:07,17.2,-17.7,34.9,0.0,2.3,111
2012-03-20 01:15:07,17.2,-17.5,34.8,0.0,2.3,111
2012-03-20 01:20:07,17.3,-17.5,34.8,0.0,2.3,112
2012-03-20 01:25:07,17.2,-17.7,34.9,0.0,2.3,111
2012-03-20 01:30:07,17.2,-17.7,34.9,0.0,2.3,111
2012-03-20 01:35:07,17.3,-17.5,34.8,0.0,2.3,112
2012-03-20 01:40:07,17.3,-17.7,35.0,0.0,2.3,111
2012-03-20 01:45:07,17.2,-17.7,34.9,0.0,2.3,111
2012-03-20 01:50:07,17.1,-17.7,34.8,0.0,2.3,112
2012-03-20 01:55:07,17.1,-17.7,34.8,0.0,2.3,111
2012-03-20 02:00:07,17.1,-17.2,34.3,0.0,2.3,112
2012-03-20 02:05:07,17.3,-12.4,29.7,0.0,2.3,112
2012-03-20 02:10:07,17.5,-8.6,26.1,0.0,2.3,111
2012-03-20 02:15:07,17.7,-10.1,27.8,0.0,2.3,112
2012-03-20 02:20:07,17.8,-7.0,24.9,0.0,2.3,111
2012-03-20 02:25:07,18.0,-4.5,22.5,0.0,2.3,112
2012-03-20 02:30:07,18.1,-4.0,22.0,0.0,2.3,112
2012-03-20 02:35:07,18.1,-4.0,22.1,0.0,2.3,112
2012-03-20 02:40:07,17.8,-4.6,22.4,0.0,2.3,111
2012-03-20 02:45:07,18.1,-4.4,22.5,0.0,2.3,112
2012-03-20 02:50:07,18.2,-3.3,21.5,0.0,2.3,112
2012-03-20 02:55:07,16.7,-1.8,18.6,0.0,2.3,112
2012-03-20 03:00:07,14.4,-0.9,15.3,0.0,2.3,111
2012-03-20 03:05:07,13.7,-2.2,15.9,0.0,2.3,112
2012-03-20 03:10:07,13.4,-0.2,13.6,0.0,2.3,111
2012-03-20 03:15:07,13.4,0.3,13.1,0.0,2.3,112
2012-03-20 03:20:07,13.4,0.7,12.6,0.0,2.3,111
2012-03-20 03:25:07,13.4,0.5,12.8,0.0,2.3,111
2012-03-20 03:30:07,13.4,0.7,12.7,0.0,2.3,112
2012-03-20 03:35:07,13.4,1.7,11.7,0.0,2.4,110
2012-03-20 03:40:07,13.5,1.3,12.2,0.0,2.3,111
2012-03-20 03:45:07,13.5,1.7,11.8,0.0,2.3,111
2012-03-20 03:50:07,13.6,1.6,12.0,0.0,2.3,111
2012-03-20 03:55:07,13.7,1.6,12.1,0.0,2.4,111
2012-03-20 04:00:07,13.7,1.9,11.8,0.0,2.3,111
2012-03-20 04:05:07,13.7,2.9,10.8,0.0,2.3,111
2012-03-20 04:10:07,13.5,2.5,11.1,0.0,2.3,112
2012-03-20 04:15:07,13.8,2.2,11.6,0.0,2.3,111
2012-03-20 04:20:07,13.9,2.2,11.6,0.0,2.3,111
2012-03-20 04:25:07,13.9,2.4,11.4,0.0,2.3,111
2012-03-20 04:30:07,13.9,3.4,10.5,0.0,2.3,111
2012-03-20 04:35:07,14.3,3.6,10.8,0.0,2.3,112
2012-03-20 04:40:07,14.1,3.6,10.5,0.0,2.3,111
2012-03-20 04:45:07,14.1,3.8,10.3,0.0,2.3,112
2012-03-20 04:50:07,14.1,2.8,11.3,0.0,2.3,111
2012-03-20 04:55:07,13.9,2.5,11.4,0.1,2.3,111
2012-03-20 05:00:07,13.8,2.5,11.3,0.1,2.3,111
2012-03-20 05:05:07,13.7,2.6,11.2,0.1,2.3,111
2012-03-20 05:10:07,13.7,2.4,11.3,0.1,2.3,112
2012-03-20 05:15:07,13.7,2.7,11.0,0.2,2.3,111
2012-03-20 05:20:07,13.7,2.6,11.1,0.4,2.3,111
2012-03-20 05:25:07,13.7,3.0,10.7,0.8,2.3,111
2012-03-20 05:30:07,13.8,3.2,10.5,1.5,2.3,111
2012-03-20 05:35:07,13.8,3.4,10.5,3.0,2.3,111
2012-03-20 05:40:07,13.9,2.2,11.7,5.9,2.3,111
2012-03-20 05:45:07,13.6,2.0,11.6,10.5,2.3,112
2012-03-20 05:50:07,13.9,1.9,12.0,16.4,2.3,111
2012-03-20 05:55:07,13.9,2.1,11.7,22.0,2.3,111
2012-03-20 06:00:07,13.9,2.8,11.1,25.8,2.3,111
2012-03-20 06:05:07,13.9,3.0,10.9,27.9,2.3,111
2012-03-20 06:10:07,14.1,3.0,11.0,28.9,2.3,111
2012-03-20 06:15:07,14.0,1.3,12.7,29.8,2.3,111
2012-03-20 06:20:07,13.9,2.1,11.8,30.4,2.3,111
2012-03-20 06:25:07,13.9,2.0,11.8,30.8,2.3,112
2012-03-20 06:30:07,13.9,1.9,12.0,31.1,2.3,111
2012-03-20 06:35:07,13.9,2.0,11.9,31.4,2.3,111
2012-03-20 06:40:07,13.9,2.5,11.4,31.5,2.3,111
2012-03-20 06:45:07,14.0,2.1,11.9,31.6,2.3,111
2012-03-20 06:50:07,14.0,2.1,12.0,31.6,2.3,112
2012-03-20 06:55:07,14.2,2.9,11.4,31.7,2.3,111
2012-03-20 07:00:07,14.8,2.8,12.0,31.8,2.3,111
2012-03-20 07:05:07,14.3,3.1,11.2,32.0,2.3,111
2012-03-20 07:10:07,14.4,2.3,12.1,32.0,2.3,111
2012-03-20 07:15:07,14.4,2.5,11.8,32.0,2.3,111
2012-03-20 07:20:07,14.4,2.8,11.7,32.0,2.3,112
2012-03-20 07:25:07,14.5,3.0,11.5,32.1,2.3,111
2012-03-20 07:30:07,14.7,3.0,11.6,32.0,2.3,111
2012-03-20 07:35:07,14.9,3.2,11.7,32.1,2.3,111
2012-03-20 07:40:07,14.9,2.9,12.1,32.2,2.3,112
2012-03-20 07:45:07,14.8,2.6,12.3,32.2,2.3,110
2012-03-20 07:50:07,14.8,2.4,12.4,32.2,2.3,111
2012-03-20 07:55:07,14.8,2.6,12.3,32.3,2.3,112
2012-03-20 08:00:07,14.9,2.7,12.1,32.3,2.3,111
2012-03-20 08:05:07,15.0,2.7,12.3,32.3,2.3,111
2012-03-20 08:10:07,15.0,3.2,11.9,32.4,2.3,111
2012-03-20 08:15:07,15.2,3.5,11.7,32.4,2.3,112
2012-03-20 08:20:07,15.4,3.3,12.0,32.4,2.3,112
2012-03-20 08:25:07,15.4,3.1,12.3,32.4,2.3,111
2012-03-20 08:30:07,15.5,3.4,12.1,32.4,2.3,111
2012-03-20 08:35:07,15.6,3.1,12.5,32.4,2.3,112
2012-03-20 08:40:07,15.6,2.6,13.0,32.4,2.3,110
2012-03-20 08:45:07,15.7,2.7,13.0,32.4,2.3,112
2012-03-20 08:50:07,15.7,2.9,12.7,32.4,2.3,110
2012-03-20 08:55:07,15.8,3.3,12.5,32.4,2.3,112
2012-03-20 09:00:07,15.9,3.1,12.8,32.5,2.3,111
2012-03-20 09:05:07,16.1,3.2,12.8,32.5,2.3,111
2012-03-20 09:10:07,16.3,3.3,13.0,32.5,2.4,112
2012-03-20 09:15:07,16.5,3.7,12.8,32.5,2.4,111
2012-03-20 09:20:07,16.7,4.0,12.7,32.5,2.1,112
2012-03-20 09:25:07,16.9,4.1,12.8,32.5,2.3,112
2012-03-20 09:30:07,16.8,3.8,13.0,32.5,2.3,111
2012-03-20 09:35:07,17.2,3.6,13.5,32.5,2.4,112
2012-03-20 09:40:07,17.3,4.0,13.3,32.5,2.6,111
2012-03-20 09:45:07,17.4,4.0,13.4,32.5,2.6,111
2012-03-20 09:50:07,17.5,3.9,13.5,32.5,2.4,112
2012-03-20 09:55:07,17.5,3.6,13.9,32.5,2.3,111
2012-03-20 10:00:07,17.6,3.5,14.1,32.5,2.3,112
2012-03-20 10:05:08,17.7,3.9,13.9,32.5,2.3,111
2012-03-20 10:10:08,18.0,4.2,13.8,32.5,2.3,112
2012-03-20 10:15:08,18.4,5.2,13.2,32.5,2.3,111
2012-03-20 10:20:08,19.0,5.1,13.9,32.5,2.0,112
2012-03-20 10:25:08,19.3,3.9,15.4,32.6,1.9,112
2012-03-20 10:30:08,19.3,3.5,15.8,32.6,2.0,111
2012-03-20 10:35:08,19.5,3.1,16.4,32.6,2.0,111
2012-03-20 10:40:08,19.6,1.9,17.7,32.6,2.2,111
2012-03-20 10:45:08,20.0,0.6,19.4,32.6,2.3,112
2012-03-20 10:50:08,22.9,-2.2,25.1,32.6,2.3,112
2012-03-20 10:55:08,25.1,1.8,23.3,32.6,2.3,111
2012-03-20 11:00:08,25.8,-1.4,27.2,32.6,2.3,111
2012-03-20 11:05:08,25.9,-0.9,26.8,32.6,2.3,112
2012-03-20 11:10:08,26.5,-2.4,28.9,32.6,2.3,112
2012-03-20 11:15:08,26.8,-2.5,29.4,32.6,2.3,112
2012-03-20 11:20:08,27.0,0.6,26.4,32.6,2.3,111
2012-03-20 11:25:08,27.4,2.5,24.9,32.6,2.2,112
2012-03-20 11:30:08,27.3,3.8,23.6,32.6,2.2,111
2012-03-20 11:35:08,27.6,4.9,22.7,32.6,2.1,112
2012-03-20 11:40:08,26.9,3.1,23.8,32.5,2.2,112
2012-03-20 11:45:08,25.5,3.7,21.8,32.5,2.3,111
2012-03-20 11:50:08,24.7,4.1,20.6,32.5,2.3,111
2012-03-20 11:55:08,22.1,4.6,17.5,32.5,2.3,112
2012-03-20 12:00:08,20.5,4.9,15.6,32.6,2.3,112
2012-03-20 12:05:08,20.1,4.7,15.4,32.5,2.3,111
2012-03-20 12:10:08,19.7,4.9,14.8,32.5,2.5,112
2012-03-20 12:15:08,19.5,4.9,14.6,32.5,2.4,112
2012-03-20 12:20:08,19.3,4.8,14.6,32.5,2.3,111
2012-03-20 12:25:08,19.3,5.0,14.2,32.5,2.3,112
2012-03-20 12:30:08,19.3,5.2,14.1,32.5,2.3,111
2012-03-20 12:35:08,19.3,4.8,14.5,32.5,2.3,112
2012-03-20 12:40:08,19.2,4.8,14.5,32.5,2.3,112
2012-03-20 12:45:08,19.2,4.9,14.3,32.5,2.2,111
2012-03-20 12:50:08,19.2,4.8,14.4,32.5,2.2,112
2012-03-20 12:55:08,19.2,5.1,14.1,32.5,2.2,111
2012-03-20 13:00:08,19.4,5.6,13.9,32.6,2.3,112
2012-03-20 13:05:08,19.8,5.0,14.7,32.5,2.3,112
2012-03-20 13:10:08,19.7,4.8,14.9,32.5,2.3,111
2012-03-20 13:15:08,19.5,4.8,14.7,32.5,2.3,112
2012-03-20 13:20:08,19.5,5.1,14.4,32.5,2.3,111
2012-03-20 13:25:08,19.5,5.0,14.5,32.5,2.3,112
2012-03-20 13:30:08,19.4,3.9,15.5,32.5,2.3,111
2012-03-20 13:35:08,20.5,-1.1,21.6,32.5,2.4,112
2012-03-20 13:40:08,23.2,-2.4,25.6,32.6,2.3,112
2012-03-20 13:45:08,24.5,3.7,20.8,32.6,2.3,111
2012-03-20 13:50:08,23.9,5.4,18.5,32.6,2.3,112
2012-03-20 13:55:08,21.8,5.1,16.6,32.5,2.3,111
2012-03-20 14:00:08,20.8,4.8,16.1,32.5,2.3,112
2012-03-20 14:05:08,20.2,4.6,15.6,32.5,2.3,112
2012-03-20 14:10:08,20.0,1.3,18.7,32.5,2.6,111
2012-03-20 14:15:08,22.7,-3.2,25.9,32.5,2.3,112
2012-03-20 14:20:08,23.2,4.6,18.6,32.6,2.3,111
2012-03-20 14:25:08,22.2,4.7,17.6,32.6,2.3,112
2012-03-20 14:30:08,21.2,5.1,16.1,32.5,2.3,111
2012-03-20 14:35:08,20.8,5.1,15.7,32.5,2.3,112
2012-03-20 14:40:08,20.5,5.1,15.3,32.5,2.3,112
2012-03-20 14:45:08,20.2,4.5,15.7,32.5,2.5,112
2012-03-20 14:50:08,20.1,2.8,17.3,32.5,2.7,111
2012-03-20 14:55:08,20.7,4.9,15.8,32.6,2.4,112
2012-03-20 15:00:08,20.9,4.6,16.3,32.5,2.3,111
2012-03-20 15:05:08,20.7,5.3,15.4,32.5,2.3,112
2012-03-20 15:10:08,20.4,3.5,16.9,32.5,2.3,111
2012-03-20 15:15:08,22.1,-2.0,24.1,32.5,2.3,112
2012-03-20 15:20:08,24.2,-2.1,26.3,32.5,2.3,111
2012-03-20 15:25:08,24.9,2.8,22.1,32.5,2.3,111
2012-03-20 15:30:08,25.3,3.4,21.9,32.6,2.3,112
2012-03-20 15:35:08,26.3,1.2,25.2,32.6,2.3,111
2012-03-20 15:40:08,27.8,3.6,24.1,32.6,2.2,111
2012-03-20 15:45:08,27.6,3.2,24.4,32.6,2.1,112
2012-03-20 15:50:08,27.2,0.9,26.3,32.6,2.2,111
2012-03-20 15:55:08,26.6,1.2,25.4,32.5,2.3,112
2012-03-20 16:00:08,26.0,1.9,24.1,32.5,2.3,111
2012-03-20 16:05:08,25.6,1.0,24.6,32.5,2.3,111
2012-03-20 16:10:08,25.5,2.6,23.0,32.5,2.3,111
2012-03-20 16:15:08,25.5,4.1,21.5,32.5,2.3,112
2012-03-20 16:20:08,25.4,3.1,22.2,32.5,2.3,111
2012-03-20 16:25:08,25.1,-0.4,25.6,32.5,2.3,112
2012-03-20 16:30:08,25.1,1.0,24.0,32.5,2.3,111
2012-03-20 16:35:08,25.3,1.5,23.9,32.6,2.3,111
2012-03-20 16:40:08,25.8,-2.9,28.7,32.6,2.3,111
2012-03-20 16:45:08,25.7,-9.1,34.8,32.5,2.3,112
2012-03-20 16:50:08,25.1,-8.3,33.4,32.5,2.3,112
2012-03-20 16:55:08,24.7,-8.5,33.3,32.5,2.3,112
2012-03-20 17:00:08,24.4,-7.8,32.3,32.5,2.3,112
2012-03-20 17:05:08,24.6,-7.1,31.7,32.5,2.3,112
2012-03-20 17:10:08,24.8,-5.7,30.5,32.5,2.3,112
2012-03-20 17:15:08,24.9,-2.8,27.8,32.5,2.3,111
2012-03-20 17:20:08,24.9,-5.3,30.2,32.5,2.3,112
2012-03-20 17:25:08,24.8,-8.5,33.3,32.4,2.3,111
2012-03-20 17:30:08,24.4,-8.7,33.2,32.4,2.3,112
2012-03-20 17:35:08,24.2,-6.8,31.0,32.4,2.3,112
2012-03-20 17:40:08,24.0,-2.3,26.3,32.3,2.4,111
2012-03-20 17:45:08,23.7,-3.3,27.0,32.2,2.3,112
2012-03-20 17:50:08,23.4,-4.5,27.9,32.1,2.3,112
2012-03-20 17:55:08,23.2,-3.9,27.2,32.0,2.3,112
2012-03-20 18:00:08,23.1,-4.7,27.8,31.8,2.3,111
2012-03-20 18:05:08,22.9,-5.2,28.1,31.7,2.3,112
2012-03-20 18:10:08,22.7,-9.0,31.7,31.5,2.3,112
2012-03-20 18:15:08,22.6,-10.1,32.7,31.3,2.3,112
2012-03-20 18:20:08,22.4,-10.3,32.7,30.9,2.4,112
2012-03-20 18:25:08,22.2,-10.3,32.5,30.2,2.6,112
2012-03-20 18:30:08,22.0,-9.9,32.0,28.9,2.5,112
2012-03-20 18:35:08,21.9,-8.8,30.7,26.4,2.3,112
2012-03-20 18:40:08,22.1,-7.0,29.0,22.0,2.4,112
2012-03-20 18:45:08,22.1,-3.9,26.0,15.3,2.4,111
2012-03-20 18:50:08,22.2,-0.9,23.1,8.8,2.4,112
2012-03-20 18:55:08,22.3,1.3,21.0,4.2,2.5,111
2012-03-20 19:00:08,22.4,0.2,22.2,2.1,2.6,112
2012-03-20 19:05:08,22.4,-1.7,24.1,1.0,2.6,111
2012-03-20 19:10:08,22.4,-3.5,25.8,0.6,2.5,112
2012-03-20 19:15:08,22.3,-3.4,25.7,0.3,2.4,112
2012-03-20 19:20:08,22.3,-2.4,24.7,0.2,2.3,112
2012-03-20 19:25:08,22.2,-1.9,24.2,0.1,2.3,111
2012-03-20 19:30:08,22.2,-2.9,25.1,0.1,2.3,112
2012-03-20 19:35:08,22.1,-2.4,24.5,0.0,2.3,112
2012-03-20 19:40:08,22.0,-1.4,23.4,0.0,2.3,111
2012-03-20 19:45:08,22.0,-0.7,22.7,0.0,2.3,112
2012-03-20 19:50:08,21.9,-2.0,23.9,0.0,2.3,112
2012-03-20 19:55:08,21.8,-3.4,25.2,0.0,2.3,111
2012-03-20 20:00:08,21.7,-2.1,23.8,0.0,2.2,112
2012-03-20 20:05:08,21.7,-1.5,23.2,0.0,2.2,111
2012-03-20 20:10:08,21.7,-2.8,24.5,0.0,2.2,112
2012-03-20 20:15:08,21.6,-5.1,26.7,0.0,2.2,111
2012-03-20 20:20:08,21.5,-5.1,26.7,0.0,2.0,111
2012-03-20 20:25:08,21.5,-3.7,25.1,0.0,2.0,111
2012-03-20 20:30:08,21.4,-3.8,25.2,0.0,2.0,112
2012-03-20 20:35:08,21.4,-4.3,25.7,0.0,1.9,113
2012-03-20 20:40:08,21.4,-2.8,24.2,0.1,1.9,111
2012-03-20 20:45:08,21.4,-3.3,24.7,0.1,1.9,112
2012-03-20 20:50:08,21.4,-2.2,23.5,0.1,1.9,112
2012-03-20 20:55:08,21.4,-3.1,24.5,0.1,1.9,112
2012-03-20 21:00:08,21.3,-3.6,24.9,0.0,1.9,111
2012-03-20 21:05:08,21.2,-4.6,25.9,0.0,1.9,112
2012-03-20 21:10:08,21.2,-5.0,26.2,0.0,2.0,112
2012-03-20 21:15:08,21.1,-5.2,26.3,0.0,2.2,111
2012-03-20 21:20:08,21.1,-4.9,26.0,0.1,2.2,111
2012-03-20 21:25:08,20.9,-5.1,26.0,0.1,2.3,112
2012-03-20 21:30:08,20.9,-4.9,25.9,0.1,2.3,111
2012-03-20 21:35:08,20.9,-4.4,25.3,0.1,2.3,112
2012-03-20 21:40:08,20.9,-4.2,25.1,0.1,2.3,112
2012-03-20 21:45:08,21.0,-4.4,25.4,0.1,2.3,112
2012-03-20 21:50:08,21.0,-3.7,24.7,0.1,2.3,112
2012-03-20 21:55:08,21.0,-4.1,25.1,0.1,2.3,112
2012-03-20 22:00:08,21.0,-3.6,24.6,0.1,2.3,111
2012-03-20 22:05:08,20.9,-2.3,23.2,0.1,2.3,112
2012-03-20 22:10:08,20.9,-2.8,23.8,0.1,2.3,112
2012-03-20 22:15:08,21.0,-1.2,22.1,0.1,2.3,111
2012-03-20 22:20:08,20.9,0.6,20.3,0.1,2.3,112
2012-03-20 22:25:08,18.2,1.3,16.8,0.1,2.4,111
2012-03-20 22:30:08,16.8,2.5,14.4,0.0,2.3,111
2012-03-20 22:35:08,16.5,2.2,14.3,0.0,2.1,111
2012-03-20 22:40:08,16.2,1.5,14.8,0.0,2.3,110
2012-03-20 22:45:08,16.1,2.0,14.2,0.0,2.4,111
2012-03-20 22:50:08,16.0,1.8,14.2,0.0,2.5,111
2012-03-20 22:55:08,16.0,1.3,14.7,0.0,2.4,111
2012-03-20 23:00:08,15.9,-1.7,17.6,0.0,2.4,112
2012-03-20 23:05:08,17.7,-4.4,22.1,0.0,2.3,112
2012-03-20 23:10:08,19.8,-3.8,23.7,0.0,2.5,112
2012-03-20 23:15:08,20.4,-2.5,23.0,0.0,2.3,112
2012-03-20 23:20:08,20.5,-0.0,20.5,0.0,2.3,112
2012-03-20 23:25:08,18.4,1.0,17.4,0.0,2.4,111
2012-03-20 23:30:08,16.9,1.3,15.6,0.0,2.2,111
2012-03-20 23:35:08,16.6,1.9,14.7,0.0,2.1,112
2012-03-20 23:40:08,16.4,1.3,15.1,0.0,2.4,111
2012-03-20 23:45:08,16.3,1.6,14.8,0.0,2.5,111
2012-03-20 23:50:08,16.3,1.9,14.5,0.0,2.4,111
2012-03-20 23:55:08,16.3,2.7,13.6,0.0,2.5,111
